Change the Weather History Date:

Friday, January 17, 2014

  Actual Average Record
Temperature  
Mean Temperature 40 °F 44 °F  
Max Temperature 49 °F 54 °F 70 °F (1999)
Min Temperature 30 °F 34 °F 3 °F (1977)
Degree Days  
Heating Degree Days 25 21  
Month to date heating degree days 425 357  
Since 1 July heating degree days 1388 1377  
Moisture  
Dew Point 21 °F    
Average Humidity 54    
Maximum Humidity 85    
Minimum Humidity 22    
Precipitation  
Precipitation 0.00 in 0.18 in 1.74 in (1960)
Month to date precipitation 2.83 2.68  
Year to date precipitation 2.83 2.68  
Snow  
Snow 0.00 in - - ()
Month to date snowfall 0.0  
Since 1 July snowfall 0.0  
Snow Depth 0.00 in    
Sea Level Pressure  
Sea Level Pressure 30.07 in    
Wind  
Wind Speed 7 mph (West)    
Max Wind Speed 18 mph    
Max Gust Speed 28 mph    
Visibility 10 miles    
Events      
T = Trace of Precipitation, MM = Missing Value Source: NWS Daily Summary

Daily Weather History Graph

Daily Weather History Graph

Search for Another Location

Airport or City:

Trip Planner

Search our weather history database for the weather conditions in past years. The results will help you decide how hot, cold, wet, or windy it might be!

Date:

Astronomy

Jan. 17, 2014 Rise Set
Actual Time 6:50 AM CST 5:04 PM CST
Civil Twilight 6:23 AM CST 5:31 PM CST
Nautical Twilight 5:52 AM CST 6:01 PM CST
Astronomical Twilight 5:23 AM CST 6:31 PM CST
Moon 6:43 PM CST (1/17) 7:24 AM CST (1/17)
Length of Visible Light 11h 08m
Length of Day
10h 14m
Full, 98% of the Moon is Illuminated
Jan 17
Full
Jan 23
Last Quarter
Jan 30
New
Feb 6
First Quarter
Feb 14
Full

Hourly Weather History & Observations

Time (CST) Temp. Windchill Dew Point Humidity Pressure Visibility Wind Dir Wind Speed Gust Speed Precip Events Conditions
12:53 AM 39.9 °F 37.8 °F 28.0 °F 63% 29.98 in 10.0 mi SSW 3.5 mph - N/A   Clear
1:53 AM 39.9 °F 35.8 °F 28.9 °F 65% 29.99 in 10.0 mi South 5.8 mph - N/A   Clear
2:53 AM 39.9 °F 37.8 °F 30.0 °F 68% 29.99 in 10.0 mi Variable 3.5 mph - N/A   Clear
3:53 AM 39.0 °F - 30.9 °F 73% 30.00 in 10.0 mi Calm Calm - N/A   Clear
4:53 AM 37.9 °F 35.5 °F 30.9 °F 76% 30.00 in 10.0 mi SW 3.5 mph - N/A   Clear
5:53 AM 36.0 °F 33.3 °F 30.9 °F 82% 30.01 in 10.0 mi SSW 3.5 mph - N/A   Clear
6:53 AM 35.1 °F - 30.9 °F 85% 30.04 in 10.0 mi Calm Calm - N/A   Clear
7:53 AM 37.9 °F 34.4 °F 33.1 °F 83% 30.06 in 10.0 mi South 4.6 mph - N/A   Clear
8:53 AM 43.0 °F 36.0 °F 28.9 °F 58% 30.07 in 10.0 mi WNW 13.8 mph 19.6 mph N/A   Clear
9:53 AM 44.1 °F 39.5 °F 28.0 °F 53% 30.09 in 10.0 mi West 8.1 mph - N/A   Clear
10:53 AM 45.0 °F 40.6 °F 25.0 °F 46% 30.08 in 10.0 mi West 8.1 mph - N/A   Clear
11:53 AM 46.9 °F - 19.9 °F 34% 30.04 in 10.0 mi West 11.5 mph - N/A   Clear
12:53 PM 48.0 °F - 19.0 °F 32% 30.02 in 10.0 mi West 11.5 mph 20.7 mph N/A   Clear
1:53 PM 48.9 °F - 17.1 °F 28% 30.01 in 10.0 mi West 9.2 mph 21.9 mph N/A   Clear
2:53 PM 48.9 °F - 16.0 °F 27% 30.02 in 10.0 mi West 13.8 mph 23.0 mph N/A   Clear
3:53 PM 46.9 °F - 10.9 °F 23% 30.04 in 10.0 mi West 11.5 mph 24.2 mph N/A   Clear
4:53 PM 44.1 °F 38.1 °F 8.1 °F 23% 30.07 in 10.0 mi West 11.5 mph 20.7 mph N/A   Clear
5:53 PM 41.0 °F 34.7 °F 10.0 °F 28% 30.10 in 10.0 mi NW 10.4 mph 20.7 mph N/A   Clear
6:53 PM 39.0 °F 31.4 °F 12.0 °F 33% 30.13 in 10.0 mi WNW 12.7 mph 20.7 mph N/A   Clear
7:53 PM 37.9 °F 30.0 °F 14.0 °F 38% 30.16 in 10.0 mi WNW 12.7 mph 24.2 mph N/A   Clear
8:53 PM 36.0 °F 29.0 °F 14.0 °F 41% 30.17 in 10.0 mi WNW 9.2 mph - N/A   Clear
9:53 PM 34.0 °F - 14.0 °F 44% 30.18 in 10.0 mi Calm Calm - N/A   Clear
10:53 PM 32.0 °F - 16.0 °F 52% 30.18 in 10.0 mi Calm Calm - N/A   Clear
11:53 PM 30.9 °F 27.5 °F 16.0 °F 54% 30.17 in 10.0 mi WSW 3.5 mph - N/A   Clear